OE2WAO-25 Weather Reports


time (UTC)temp
C
wind
direction
speed
KPH
gust
KPH
rain 1hr
cm
rain 24hr
cm
rain mn
cm
humidity
%
barometer
mb
20260502130648 24 0.0 0.0 0.00 0.00 0.00 32 1020.3
20260502123625 24 0.0 0.0 0.00 0.00 0.00 38 1020.7
20260502122617 23 0.0 0.0 0.00 0.00 0.00 37 1020.8
20260502121610 24 0.0 0.0 0.00 0.00 0.00 38 1020.9
20260502120602 23 0.0 0.0 0.00 0.00 0.00 39 1021.0
20260502115555 23 0.0 0.0 0.00 0.00 0.00 40 1021.1
20260502114547 23 0.0 0.0 0.00 0.00 0.00 43 1021.2
20260502113540 23 0.0 0.0 0.00 0.00 0.00 46 1021.3
20260502112532 23 0.0 0.0 0.00 0.00 0.00 48 1021.4
20260502111525 22 0.0 0.0 0.00 0.00 0.00 50 1021.5
20260502110517 22 0.0 0.0 0.00 0.00 0.00 50 1021.6
20260502105510 21 0.0 0.0 0.00 0.00 0.00 52 1021.8
20260502104502 21 0.0 0.0 0.00 0.00 0.00 58 1021.9
20260502103455 21 0.0 0.0 0.00 0.00 0.00 60 1022.0
20260502102447 20 0.0 0.0 0.00 0.00 0.00 64 1022.1
20260502101440 20 0.0 0.0 0.00 0.00 0.00 71 1022.2
20260502100432 18 0.0 0.0 0.00 0.00 0.00 74 1022.3
20260502091355 17 0.0 0.0 0.00 0.00 0.00 85 1022.7
20260502090347 16 0.0 0.0 0.00 0.00 0.00 89 1022.7
20260502071225 12 0.0 0.0 0.00 0.00 0.00 99 1023.1
20260502070218 12 0.0 0.0 0.00 0.00 0.00 99 1023.2
20260502065210 11 0.0 0.0 0.00 0.00 0.00 99 1023.2
20260502064203 11 0.0 0.0 0.00 0.00 0.00 99 1023.3
20260502063155 11 0.0 0.0 0.00 0.00 0.00 99 1023.3
20260502062147 10 0.0 0.0 0.00 0.00 0.00 99 1023.3
20260502061140 10 0.0 0.0 0.00 0.00 0.00 99 1023.3
20260502060132 10 0.0 0.0 0.00 0.00 0.00 99 1023.4
20260502055125 10 0.0 0.0 0.00 0.00 0.00 99 1023.4
20260502054118 9 0.0 0.0 0.00 0.00 0.00 99 1023.4
20260502053110 9 0.0 0.0 0.00 0.00 0.00 99 1023.4
20260502052103 8 0.0 0.0 0.00 0.00 0.00 99 1023.3
20260502051055 8 0.0 0.0 0.00 0.00 0.00 99 1023.4
20260502050048 7 0.0 0.0 0.00 0.00 0.00 99 1023.4
20260502045040 7 0.0 0.0 0.00 0.00 0.00 99 1023.4
20260502044033 7 0.0 0.0 0.00 0.00 0.00 99 1023.3
20260502043025 7 0.0 0.0 0.00 0.00 0.00 99 1023.3
20260502042018 7 0.0 0.0 0.00 0.00 0.00 99 1023.3
20260502041011 7 0.0 0.0 0.00 0.00 0.00 99 1023.3
20260502040003 7 0.0 0.0 0.00 0.00 0.00 99 1023.3
20260502034956 7 0.0 0.0 0.00 0.00 0.00 99 1023.2
20260502033948 7 0.0 0.0 0.00 0.00 0.00 99 1023.3
20260502032941 7 0.0 0.0 0.00 0.00 0.00 99 1023.3
20260502031933 7 0.0 0.0 0.00 0.00 0.00 99 1023.2
20260502030926 7 0.0 0.0 0.00 0.00 0.00 99 1023.3
20260502025919 8 0.0 0.0 0.00 0.00 0.00 99 1023.4
20260502024911 8 0.0 0.0 0.00 0.00 0.00 99 1023.5
20260502023904 8 0.0 0.0 0.00 0.00 0.00 99 1023.5
20260502022856 8 0.0 0.0 0.00 0.00 0.00 99 1023.6
20260502021849 8 0.0 0.0 0.00 0.00 0.00 99 1023.6
20260502020841 8 0.0 0.0 0.00 0.00 0.00 99 1023.7
20260502015834 8 0.0 0.0 0.00 0.00 0.00 99 1023.7
20260502014826 8 0.0 0.0 0.00 0.00 0.00 99 1023.8
20260502013819 8 0.0 0.0 0.00 0.00 0.00 99 1023.9
20260502012812 8 0.0 0.0 0.00 0.00 0.00 99 1023.9
20260502011804 8 0.0 0.0 0.00 0.00 0.00 99 1024.0
20260502010756 8 0.0 0.0 0.00 0.00 0.00 99 1024.1
20260502005749 8 0.0 0.0 0.00 0.00 0.00 99 1024.2
20260502004741 9 0.0 0.0 0.00 0.00 0.00 99 1024.2
20260502003734 9 0.0 0.0 0.00 0.00 0.00 99 1024.3
20260502002726 9 0.0 0.0 0.00 0.00 0.00 99 1024.3
20260502001718 9 0.0 0.0 0.00 0.00 0.00 99 1024.4
20260502000711 9 0.0 0.0 0.00 0.00 0.00 99 1024.5
20260501235703 9 0.0 0.0 0.00 0.00 0.00 99 1024.5
20260501234656 9 0.0 0.0 0.00 0.00 0.00 99 1024.5
20260501233648 9 0.0 0.0 0.00 0.00 0.00 99 1024.5
20260501232641 10 0.0 0.0 0.00 0.00 0.00 99 1024.5
20260501231633 10 0.0 0.0 0.00 0.00 0.00 99 1024.6
20260501230626 10 0.0 0.0 0.00 0.00 0.00 99 1024.6
20260501225618 10 0.0 0.0 0.00 0.00 0.00 99 1024.7
20260501224610 10 0.0 0.0 0.00 0.00 0.00 99 1024.8
20260501223603 10 0.0 0.0 0.00 0.00 0.00 99 1024.7
20260501222555 10 0.0 0.0 0.00 0.00 0.00 99 1024.8
20260501221547 10 0.0 0.0 0.00 0.00 0.00 99 1024.8
20260501220539 11 0.0 0.0 0.00 0.00 0.00 99 1024.8
20260501215532 11 0.0 0.0 0.00 0.00 0.00 99 1024.9
20260501214524 11 0.0 0.0 0.00 0.00 0.00 99 1024.9
20260501213517 11 0.0 0.0 0.00 0.00 0.00 99 1024.9
20260501212509 11 0.0 0.0 0.00 0.00 0.00 99 1024.9
20260501211501 11 0.0 0.0 0.00 0.00 0.00 99 1024.9
20260501210454 11 0.0 0.0 0.00 0.00 0.00 99 1024.9
20260501205446 12 0.0 0.0 0.00 0.00 0.00 99 1024.9
20260501204439 12 0.0 0.0 0.00 0.00 0.00 99 1024.9
20260501203431 12 0.0 0.0 0.00 0.00 0.00 99 1024.9
20260501202424 12 0.0 0.0 0.00 0.00 0.00 94 1024.9
20260501201416 12 0.0 0.0 0.00 0.00 0.00 91 1025.0
20260501200409 13 0.0 0.0 0.00 0.00 0.00 91 1025.0
20260501195401 13 0.0 0.0 0.00 0.00 0.00 90 1025.0
20260501194354 13 0.0 0.0 0.00 0.00 0.00 86 1024.9
20260501193346 13 0.0 0.0 0.00 0.00 0.00 86 1025.0
20260501192339 13 0.0 0.0 0.00 0.00 0.00 84 1025.0
20260501191331 13 0.0 0.0 0.00 0.00 0.00 80 1025.0
20260501190324 14 0.0 0.0 0.00 0.00 0.00 73 1024.9
20260501185316 15 0.0 0.0 0.00 0.00 0.00 70 1024.9
20260501184305 15 0.0 0.0 0.00 0.00 0.00 68 1024.8
20260501183258 15 0.0 0.0 0.00 0.00 0.00 67 1024.8
20260501182250 15 0.0 0.0 0.00 0.00 0.00 62 1024.8
20260501180235 16 0.0 0.0 0.00 0.00 0.00 58 1024.6
20260501175228 16 0.0 0.0 0.00 0.00 0.00 56 1024.7
20260501174219 16 0.0 0.0 0.00 0.00 0.00 55 1024.6
20260501173211 16 0.0 0.0 0.00 0.00 0.00 53 1024.5
20260501172204 16 0.0 0.0 0.00 0.00 0.00 51 1024.4
20260501171156 17 0.0 0.0 0.00 0.00 0.00 50 1024.3
20260501170149 17 0.0 0.0 0.00 0.00 0.00 49 1024.4
20260501165141 17 0.0 0.0 0.00 0.00 0.00 47 1024.4
20260501164133 17 0.0 0.0 0.00 0.00 0.00 47 1024.4
20260501163125 17 0.0 0.0 0.00 0.00 0.00 47 1024.5
20260501162118 18 0.0 0.0 0.00 0.00 0.00 46 1024.5
20260501161110 18 0.0 0.0 0.00 0.00 0.00 46 1024.6
20260501155055 18 0.0 0.0 0.00 0.00 0.00 44 1024.6
20260501154047 18 0.0 0.0 0.00 0.00 0.00 44 1024.6
20260501153040 18 0.0 0.0 0.00 0.00 0.00 45 1024.6
20260501152032 19 0.0 0.0 0.00 0.00 0.00 44 1024.7
20260501151024 19 0.0 0.0 0.00 0.00 0.00 44 1024.8
20260501150017 19 0.0 0.0 0.00 0.00 0.00 43 1024.9
20260501145009 19 0.0 0.0 0.00 0.00 0.00 43 1025.0
20260501144002 19 0.0 0.0 0.00 0.00 0.00 43 1025.0
20260501142954 19 0.0 0.0 0.00 0.00 0.00 44 1025.1
20260501141947 19 0.0 0.0 0.00 0.00 0.00 45 1025.2
20260501140939 19 0.0 0.0 0.00 0.00 0.00 43 1025.3
20260501135932 19 0.0 0.0 0.00 0.00 0.00 43 1025.3
20260501134924 20 0.0 0.0 0.00 0.00 0.00 43 1025.3
20260501133917 19 0.0 0.0 0.00 0.00 0.00 43 1025.4
20260501132909 19 0.0 0.0 0.00 0.00 0.00 44 1025.6